Location: ????????
(55.5667°N, 37.5833°E)
Time: 06:22:29
(UTC+00:00)

Cosmos 1302 Rocket - Pass Details

Date: 14 April 2026
Orbit: 752 x 771 km, 74.0° (Epoch: 10 May)

Event Time Altitude Azimuth Distance (km) Brightness Sun altitude
Exits shadow 23:29:15 34° 172° (S) 1,227 4.6 -20.2°
Maximum altitude 23:31:16 57° 111° (ESE) 890 4.3 -20.0°
Drops below altitude 10° 23:36:21 10° 34° (NNE) 2,289 7.7 -19.6°
Sets 23:38:45 0° 30° (NNE) 3,218 8.9 -19.4°
